| time (UTC) | temp F | wind direction | speed MPH | gust MPH | rain 1hr in | rain 24hr in | rain mn in | humidity % | barometer mb |
| 20260502164015 | 64 | 283 | 2.0 | 7.0 | 0.00 | 0.00 | 0.00 | 78 | 1015.7 |
| 20260502163015 | 64 | 321 | 2.0 | 5.0 | 0.00 | 0.00 | 0.00 | 78 | 1015.4 |
| 20260502162035 | 64 | 350 | 0.0 | 5.0 | 0.00 | 0.00 | 0.00 | 78 | 1015.4 |
| 20260502161017 | 64 | 346 | 3.0 | 5.0 | 0.00 | 0.00 | 0.00 | 79 | 1015.5 |
| 20260502152016 | 62 | 61 | 1.0 | 3.0 | 0.00 | 0.00 | 0.00 | 80 | 1015.4 |
| 20260502151037 | 62 | 59 | 1.0 | 4.0 | 0.00 | 0.00 | 0.00 | 80 | 1015.4 |
| 20260502123017 | 62 | 0.0 | 0.0 | 0.00 | 0.00 | 0.00 | 79 | 1014.5 | |
| 20260502122016 | 62 | 0.0 | 0.0 | 0.00 | 0.00 | 0.00 | 79 | 1014.4 | |
| 20260502121017 | 62 | 0.0 | 0.0 | 0.00 | 0.00 | 0.00 | 79 | 1014.4 | |
| 20260502115016 | 63 | 232 | 1.0 | 4.0 | 0.00 | 0.00 | 0.00 | 79 | 1014.3 |
| 20260502114016 | 63 | 234 | 1.0 | 4.0 | 0.00 | 0.00 | 0.00 | 79 | 1014.3 |
| 20260502113016 | 63 | 320 | 2.0 | 3.0 | 0.00 | 0.00 | 0.00 | 79 | 1014.2 |
| 20260502112017 | 62 | 313 | 2.0 | 4.0 | 0.00 | 0.00 | 0.00 | 79 | 1014.2 |
| 20260502111017 | 62 | 0.0 | 0.0 | 0.00 | 0.00 | 0.00 | 79 | 1014.2 | |
| 20260502110016 | 62 | 0.0 | 0.0 | 0.00 | 0.00 | 0.00 | 79 | 1014.2 | |
| 20260502105037 | 62 | 0.0 | 0.0 | 0.00 | 0.00 | 0.00 | 79 | 1014.2 | |
| 20260502104016 | 62 | 0.0 | 0.0 | 0.00 | 0.00 | 0.00 | 79 | 1014.2 | |
| 20260502103037 | 62 | 242 | 0.0 | 3.0 | 0.00 | 0.00 | 0.00 | 79 | 1014.2 |
| 20260502102017 | 62 | 242 | 1.0 | 4.0 | 0.00 | 0.00 | 0.00 | 79 | 1014.2 |
| 20260502101016 | 62 | 277 | 1.0 | 3.0 | 0.00 | 0.00 | 0.00 | 79 | 1014.2 |
| 20260502091016 | 62 | 3 | 2.0 | 4.0 | 0.00 | 0.00 | 0.00 | 79 | 1014.3 |
| 20260502071016 | 63 | 11 | 1.0 | 3.0 | 0.00 | 0.00 | 0.00 | 78 | 1015.0 |
| 20260502070017 | 63 | 11 | 1.0 | 3.0 | 0.00 | 0.00 | 0.00 | 78 | 1014.9 |
| 20260502065016 | 63 | 12 | 0.0 | 4.0 | 0.00 | 0.00 | 0.00 | 78 | 1014.9 |
| 20260502064017 | 63 | 14 | 0.0 | 4.0 | 0.00 | 0.00 | 0.00 | 78 | 1014.9 |
| 20260502063018 | 63 | 0.0 | 1.0 | 0.00 | 0.00 | 0.00 | 77 | 1014.9 | |
| 20260502062017 | 63 | 23 | 2.0 | 3.0 | 0.00 | 0.00 | 0.00 | 77 | 1014.8 |
| 20260502061016 | 63 | 44 | 1.0 | 4.0 | 0.00 | 0.00 | 0.00 | 77 | 1014.9 |
| 20260502060017 | 64 | 22 | 2.0 | 5.0 | 0.00 | 0.00 | 0.00 | 77 | 1014.9 |
| 20260502055017 | 64 | 337 | 1.0 | 4.0 | 0.00 | 0.00 | 0.00 | 76 | 1015.0 |
| 20260502054016 | 64 | 335 | 1.0 | 3.0 | 0.00 | 0.00 | 0.00 | 76 | 1014.9 |
| 20260502053057 | 64 | 338 | 1.0 | 3.0 | 0.00 | 0.00 | 0.00 | 76 | 1014.8 |
| 20260502052036 | 64 | 337 | 2.0 | 5.0 | 0.00 | 0.00 | 0.00 | 76 | 1014.7 |
| 20260502051017 | 64 | 338 | 1.0 | 5.0 | 0.00 | 0.00 | 0.00 | 76 | 1014.8 |
| 20260502050017 | 64 | 347 | 2.0 | 4.0 | 0.00 | 0.00 | 0.00 | 76 | 1014.8 |
| 20260502045017 | 64 | 340 | 2.0 | 4.0 | 0.00 | 0.00 | 0.00 | 76 | 1014.8 |
| 20260502044017 | 64 | 314 | 2.0 | 4.0 | 0.00 | 0.00 | 0.00 | 77 | 1014.6 |
| 20260502043016 | 64 | 305 | 1.0 | 4.0 | 0.00 | 0.00 | 0.00 | 77 | 1014.6 |
| 20260502042016 | 64 | 262 | 0.0 | 4.0 | 0.00 | 0.00 | 0.00 | 77 | 1014.5 |
| 20260502041016 | 64 | 288 | 1.0 | 4.0 | 0.00 | 0.00 | 0.00 | 76 | 1014.5 |
| 20260502040016 | 64 | 292 | 2.0 | 4.0 | 0.00 | 0.00 | 0.00 | 76 | 1014.5 |
| 20260502035016 | 64 | 299 | 2.0 | 4.0 | 0.00 | 0.00 | 0.00 | 76 | 1014.3 |
| 20260502034117 | 64 | 296 | 1.0 | 3.0 | 0.00 | 0.00 | 0.00 | 75 | 1014.3 |
| 20260502033017 | 64 | 300 | 1.0 | 4.0 | 0.00 | 0.00 | 0.00 | 75 | 1014.0 |
| 20260502032018 | 65 | 309 | 2.0 | 4.0 | 0.00 | 0.00 | 0.00 | 75 | 1014.0 |
| 20260502031036 | 65 | 323 | 2.0 | 5.0 | 0.00 | 0.00 | 0.00 | 75 | 1013.9 |
| 20260502030016 | 65 | 306 | 3.0 | 5.0 | 0.00 | 0.00 | 0.00 | 75 | 1013.8 |
| 20260502025036 | 65 | 284 | 2.0 | 4.0 | 0.00 | 0.00 | 0.00 | 74 | 1013.8 |
| 20260502024016 | 65 | 281 | 2.0 | 7.0 | 0.00 | 0.00 | 0.00 | 74 | 1013.7 |
| 20260502023036 | 65 | 265 | 3.0 | 6.0 | 0.00 | 0.00 | 0.00 | 74 | 1013.5 |
| 20260502022016 | 65 | 282 | 4.0 | 8.0 | 0.00 | 0.00 | 0.00 | 73 | 1013.5 |
| 20260502021036 | 66 | 273 | 3.0 | 8.0 | 0.00 | 0.00 | 0.00 | 73 | 1013.2 |
| 20260502020016 | 66 | 249 | 2.0 | 7.0 | 0.00 | 0.00 | 0.00 | 72 | 1013.2 |
| 20260502015016 | 67 | 245 | 3.0 | 8.0 | 0.00 | 0.00 | 0.00 | 71 | 1013.2 |
| 20260502014016 | 67 | 247 | 3.0 | 9.0 | 0.00 | 0.00 | 0.00 | 71 | 1013.2 |
| 20260502013017 | 68 | 226 | 4.0 | 11.0 | 0.00 | 0.00 | 0.00 | 70 | 1013.0 |
| 20260502012016 | 68 | 221 | 3.0 | 7.0 | 0.00 | 0.00 | 0.00 | 69 | 1013.0 |
| 20260502011017 | 68 | 256 | 4.0 | 10.0 | 0.00 | 0.00 | 0.00 | 69 | 1012.9 |
| 20260502010016 | 69 | 264 | 2.0 | 8.0 | 0.00 | 0.00 | 0.00 | 68 | 1012.8 |
| 20260502005016 | 69 | 232 | 3.0 | 10.0 | 0.00 | 0.00 | 0.00 | 68 | 1012.8 |
| 20260502004018 | 70 | 223 | 5.0 | 10.0 | 0.00 | 0.00 | 0.00 | 67 | 1012.8 |
| 20260502003016 | 70 | 217 | 4.0 | 12.0 | 0.00 | 0.00 | 0.00 | 66 | 1012.7 |
| 20260502002036 | 71 | 229 | 3.0 | 9.0 | 0.00 | 0.00 | 0.00 | 66 | 1012.7 |
| 20260502001016 | 71 | 237 | 4.0 | 9.0 | 0.00 | 0.00 | 0.00 | 65 | 1012.7 |
| 20260502000016 | 71 | 225 | 5.0 | 12.0 | 0.00 | 0.00 | 0.00 | 65 | 1012.7 |
| 20260501235016 | 71 | 266 | 5.0 | 10.0 | 0.00 | 0.00 | 0.00 | 65 | 1012.7 |
| 20260501234016 | 72 | 216 | 5.0 | 8.0 | 0.00 | 0.00 | 0.00 | 64 | 1012.6 |
| 20260501233016 | 72 | 259 | 5.0 | 11.0 | 0.00 | 0.00 | 0.00 | 64 | 1012.6 |
| 20260501232017 | 73 | 220 | 4.0 | 10.0 | 0.00 | 0.00 | 0.00 | 63 | 1012.6 |
| 20260501231016 | 73 | 232 | 5.0 | 12.0 | 0.00 | 0.00 | 0.00 | 63 | 1012.7 |
| 20260501230016 | 73 | 271 | 5.0 | 10.0 | 0.00 | 0.00 | 0.00 | 63 | 1012.9 |
| 20260501225016 | 74 | 212 | 7.0 | 13.0 | 0.00 | 0.00 | 0.00 | 62 | 1012.9 |
| 20260501224056 | 74 | 255 | 4.0 | 10.0 | 0.00 | 0.00 | 0.00 | 62 | 1013.0 |
| 20260501223016 | 75 | 217 | 7.0 | 14.0 | 0.00 | 0.00 | 0.00 | 60 | 1013.3 |
| 20260501222016 | 76 | 253 | 5.0 | 14.0 | 0.00 | 0.00 | 0.00 | 59 | 1013.4 |
| 20260501221016 | 76 | 253 | 5.0 | 13.0 | 0.00 | 0.00 | 0.00 | 58 | 1013.4 |
| 20260501220016 | 76 | 256 | 5.0 | 10.0 | 0.00 | 0.00 | 0.00 | 58 | 1013.5 |
| 20260501215017 | 75 | 260 | 5.0 | 11.0 | 0.00 | 0.00 | 0.00 | 58 | 1013.6 |
| 20260501214016 | 76 | 262 | 4.0 | 10.0 | 0.00 | 0.00 | 0.00 | 58 | 1013.8 |
| 20260501213036 | 75 | 238 | 6.0 | 14.0 | 0.00 | 0.00 | 0.00 | 58 | 1013.9 |
| 20260501212016 | 75 | 238 | 5.0 | 12.0 | 0.00 | 0.00 | 0.00 | 57 | 1013.9 |
| 20260501211016 | 76 | 240 | 5.0 | 12.0 | 0.00 | 0.00 | 0.00 | 57 | 1014.0 |
| 20260501210016 | 77 | 237 | 4.0 | 12.0 | 0.00 | 0.00 | 0.00 | 56 | 1014.0 |
| 20260501205035 | 77 | 246 | 6.0 | 15.0 | 0.00 | 0.00 | 0.00 | 55 | 1014.1 |
| 20260501204016 | 78 | 230 | 5.0 | 12.0 | 0.00 | 0.00 | 0.00 | 54 | 1014.1 |
| 20260501203036 | 77 | 277 | 6.0 | 11.0 | 0.00 | 0.00 | 0.00 | 57 | 1014.0 |
| 20260501202016 | 75 | 234 | 4.0 | 11.0 | 0.00 | 0.00 | 0.00 | 58 | 1014.0 |
| 20260501201016 | 74 | 276 | 5.0 | 12.0 | 0.00 | 0.00 | 0.00 | 60 | 1014.1 |
| 20260501200016 | 72 | 205 | 6.0 | 18.0 | 0.00 | 0.00 | 0.00 | 62 | 1014.1 |
| 20260501195015 | 73 | 187 | 11.0 | 19.0 | 0.00 | 0.00 | 0.00 | 60 | 1014.1 |
| 20260501194036 | 73 | 183 | 11.0 | 18.0 | 0.00 | 0.00 | 0.00 | 60 | 1014.3 |
| 20260501193016 | 73 | 179 | 11.0 | 18.0 | 0.00 | 0.00 | 0.00 | 60 | 1014.3 |
| 20260501192055 | 73 | 198 | 8.0 | 16.0 | 0.00 | 0.00 | 0.00 | 59 | 1014.5 |
| 20260501191015 | 75 | 192 | 8.0 | 15.0 | 0.00 | 0.00 | 0.00 | 58 | 1014.5 |
| 20260501190016 | 74 | 218 | 5.0 | 13.0 | 0.00 | 0.00 | 0.00 | 58 | 1014.6 |
| 20260501185015 | 74 | 213 | 6.0 | 14.0 | 0.00 | 0.00 | 0.00 | 58 | 1014.7 |
| 20260501184015 | 75 | 205 | 6.0 | 13.0 | 0.00 | 0.00 | 0.00 | 56 | 1014.8 |
| 20260501183015 | 75 | 238 | 5.0 | 12.0 | 0.00 | 0.00 | 0.00 | 57 | 1015.0 |
| 20260501182016 | 75 | 210 | 3.0 | 8.0 | 0.00 | 0.00 | 0.00 | 58 | 1015.2 |
| 20260501181015 | 75 | 209 | 2.0 | 8.0 | 0.00 | 0.00 | 0.00 | 58 | 1015.3 |
| 20260501180015 | 73 | 321 | 2.0 | 8.0 | 0.00 | 0.00 | 0.00 | 61 | 1015.4 |